[[{"header":{"parameterUnit":"m.s-1","parameterCategory":1,"la1":30.2991,"la2":30.254,"lo1":-89.0895,"lo2":-89.0444,"dy":0.0017,"dx":0.0017,"nx":28,"ny":28,"refTime":"2026-03-05T09:00:00:Z","depth":0,"parameterNumber":2,"parameterNumberName":"U-component_of_WINDS"},"data":[0,0,0,0,0,0,0,0,0,0,0,0,0,0,0,0,0,0,0,0,0,0,0,0,0,0,0,0,0,0,0,0,0,0,0,0,0,0,0,0,0,0,0,0,0,0,0,0,0,0,0,0,0,0,0,0,0,0,-3.3106,-3.3107,0,-3.3174,-3.3175,-3.3175,-3.3157,-3.3156,-3.3154,-3.3153,-3.3222,-3.3225,-3.3228,0,0,0,0,0,0,0,0,0,0,0,0,0,-3.2963,-3.2965,-3.3106,-3.3107,-3.3108,-3.3174,-3.3175,-3.3176,-3.3157,-3.3156,-3.3154,-3.3153,-3.3221,-3.3225,-3.3229,0,0,0,0,0,0,0,0,0,0,0,0,0,-3.3027,-3.2966,-3.3106,-3.3107,-3.3108,-3.3174,-3.3175,-3.3176,-3.3158,-3.3156,-3.3154,-3.3152,-3.322,-3.3225,-3.3229,-3.3299,0,0,-3.3243,-3.3246,0,0,0,0,0,0,0,0,-3.3023,-3.3032,-3.3106,-3.3107,-3.3108,-3.3155,-3.3149,-3.3217,-3.3158,-3.3139,-3.3153,-3.3151,-3.3202,-3.3208,-3.3225,-3.3302,-3.3305,-3.3244,-3.3247,-3.3249,-3.325,0,0,0,0,0,0,0,-3.3019,-3.3029,-3.3133,-3.3107,-3.3108,-3.3104,-3.3111,-3.3162,-3.3181,-3.314,-3.3139,-3.3147,-3.3202,-3.322,-3.3226,-3.3306,-3.3244,-3.3248,-3.3251,-3.3253,-3.3445,-3.3447,0,0,0,0,0,0,-3.3014,-3.3026,-3.3131,-3.3135,-3.306,-3.3108,-3.3116,-3.3142,-3.318,-3.3184,-3.3149,-3.3146,-3.3213,-3.3221,-3.3229,-3.3312,-3.3249,-3.3253,-3.3256,-3.3442,-3.3445,-3.3448,0,0,0,0,0,0,-3.3011,-3.3023,-3.3128,-3.308,-3.3093,-3.3113,-3.3142,-3.3144,-3.3163,-3.3187,-3.319,-3.3164,-3.3212,-3.3222,-3.3282,-3.3314,-3.3255,-3.3259,-3.344,-3.3443,-3.3446,-3.348,0,0,0,0,0,0,-3.3007,-3.3022,-3.3048,-3.3081,-3.3096,-3.3179,-3.3144,-3.3147,-3.3171,-3.3168,-3.3202,-3.3206,-3.3211,-3.3275,-3.3286,-3.332,-3.3263,-3.3437,-3.3441,-3.3445,-3.3476,-3.3485,-3.3492,0,0,0,0,0,-3.3002,-3.3055,-3.305,-3.3062,-3.3129,-3.3181,-3.319,-3.3195,-3.3174,-3.32,-3.3216,-3.3205,-3.331,-3.3281,-3.3294,-3.3329,-3.3435,-3.344,-3.3445,-3.3473,-3.3483,-3.3491,0,0,0,0,0,0,-3.3025,-3.3059,-3.3054,-3.3119,-3.3148,-3.3178,-3.3212,-3.3205,-3.324,-3.3236,-3.3241,-3.3249,-3.331,-3.3326,-3.3294,-3.3399,-3.3369,-3.3377,-3.3386,-3.3396,-3.3403,-3.3397,-3.3267,0,0,0,0,0,-3.3038,-3.3078,-3.3106,-3.3161,-3.3175,-3.3191,-3.3214,-3.3216,-3.3246,-3.3258,-3.3278,-3.3307,-3.3347,-3.3372,-3.341,-3.348,-3.3487,-3.3511,-3.3518,-3.3524,-3.3531,-3.3569,-3.358,-3.3465,-3.3465,-3.3465,0,0,-3.3065,-3.3089,-3.3113,-3.3166,-3.3188,-3.323,-3.3201,-3.3246,-3.3277,-3.3264,-3.3321,-3.3338,-3.3371,-3.3436,-3.3465,-3.3451,-3.3564,-3.3531,-3.3536,-3.3539,-3.3575,-3.3586,-3.3596,-3.3468,-3.3468,-3.3467,0,0,-3.3134,-3.3157,-3.3205,-3.3228,-3.3263,-3.3273,-3.3285,-3.3317,-3.3328,-3.3385,-3.3377,-3.3415,-3.3483,-3.3507,-3.3528,-3.361,-3.3601,-3.3622,-3.3661,-3.3698,-3.3707,-3.3715,-3.3744,-3.3754,-3.3629,-3.3629,-3.3629,0,-3.3163,-3.3225,-3.3231,-3.3276,-3.33,-3.3292,-3.3341,-3.3364,-3.3409,-3.3426,-3.3409,-3.3495,-3.3517,-3.3588,-3.3608,-3.3626,-3.3639,-3.3617,-3.3706,-3.3714,-3.3721,-3.3748,-3.3759,-3.3631,-3.3631,-3.3631,-3.363,0,-3.3258,-3.3301,-3.3336,-3.338,-3.3408,-3.3456,-3.3469,-3.3497,-3.3498,-3.351,-3.357,-3.3597,-3.364,-3.3657,-3.3658,-3.3728,-3.3718,-3.3704,-3.3673,-3.3734,-3.376,-3.3771,-3.3634,-3.3633,-3.3633,-3.3632,0,0,-3.3341,-3.339,-3.3403,-3.3423,-3.3461,-3.3495,-3.3543,-3.3585,-3.3609,-3.3642,-3.3681,-3.3741,-3.3728,-3.3752,-3.3756,-3.3789,-3.3852,-3.377,-3.3771,-3.3784,-3.3931,-3.394,-3.3952,-3.3847,-3.3849,-3.3851,-3.3928,0,-3.3413,-3.3497,-3.3505,-3.358,-3.362,-3.3614,-3.3656,-3.3684,-3.3698,-3.3735,-3.375,-3.3792,-3.3772,-3.3787,-3.382,-3.3837,-3.3881,-3.3832,-3.3884,-3.3886,-3.3874,-3.3966,-3.3975,-3.4047,-3.3938,-3.394,-3.3941,0,-3.3508,-3.3543,-3.3622,-3.3656,-3.3673,-3.371,-3.3751,-3.3786,-3.3819,-3.3827,-3.3855,-3.3855,-3.3905,-3.3874,-3.3943,-3.391,-3.3932,-3.3944,-3.3947,-3.395,-3.3915,-3.397,-3.407,-3.408,-3.3957,-3.3956,-3.3955,0,-3.3559,-3.3627,-3.3683,-3.3701,-3.3742,-3.3768,-3.3787,-3.3818,-3.3844,-3.388,-3.3896,-3.3938,-3.396,-3.3992,-3.4004,-3.3981,-3.4072,-3.4043,-3.408,-3.408,-3.4097,-3.4096,-3.42,-3.4115,-3.4115,-3.4115,-3.4114,0,-3.3638,-3.3686,-3.3707,-3.3741,-3.3795,-3.3805,-3.3859,-3.3876,-3.3904,-3.3942,-3.3941,-3.3977,-3.399,-3.4029,-3.4038,-3.4094,-3.4105,-3.4112,-3.4114,-3.4111,-3.411,-3.4124,-3.4119,-3.4117,-3.4117,-3.4116,-3.4116,0,-3.3703,-3.3719,-3.378,-3.3815,-3.3825,-3.3863,-3.3893,-3.3927,-3.3941,-3.399,-3.4002,-3.4024,-3.407,-3.4085,-3.414,-3.4146,-3.4211,-3.4209,-3.4199,-3.4199,-3.4235,-3.4231,-3.4351,-3.4367,-3.4273,-3.4273,-3.4274,0,-3.3751,-3.3788,-3.3828,-3.3853,-3.3873,-3.3914,-3.394,-3.3952,-3.398,-3.4021,-3.405,-3.4095,-3.4131,-3.4204,-3.4226,-3.4268,-3.4266,-3.4306,-3.4272,-3.4269,-3.4266,-3.4262,-3.4266,-3.4311,-3.4312,-3.4313,-3.4313,0,-3.3834,-3.3841,-3.3879,-3.392,-3.3952,-3.3985,-3.4017,-3.4038,-3.4055,-3.4087,-3.4133,-3.4161,-3.4218,-3.4263,-3.4306,-3.4326,-3.4323,-3.4324,-3.4335,-3.4331,-3.4324,-3.4327,-3.4214,-3.4321,-3.432,-3.4319,-3.4319,-3.4319,-3.3892,-3.3925,-3.3958,-3.4,-3.4026,-3.4057,-3.409,-3.4109,-3.4148,-3.4195,-3.42,-3.425,-3.4284,-3.4342,-3.4364,-3.4404,-3.4393,-3.4409,-3.4412,-3.4415,-3.4418,-3.4319,-3.4412,-3.4412,-3.4412,-3.4412,-3.4412,0,-3.3974,-3.3995,-3.4035,-3.408,-3.4114,-3.4109,-3.4145,-3.4173,-3.4217,-3.4249,-3.4286,-3.4339,-3.4384,-3.441,-3.4454,-3.4481,-3.448,-3.4492,-3.4489,-3.4494,-3.4425,-3.4411,-3.4491,-3.4491,-3.4491,-3.4491,-3.4491,-3.4491,-3.402,-3.4076,-3.4087,-3.4155,-3.4177,-3.4225,-3.4246,-3.4275,-3.43,-3.436,-3.4397,-3.4414,-3.4444,-3.4491,-3.4531,-3.4538,-3.4554,-3.4566,-3.4572,-3.4507,-3.4498,-3.449,-3.4477,-3.457,-3.457,-3.4636,-3.4637,-3.4637]},{"header":{"parameterUnit":"m.s-1","parameterCategory":1,"la1":30.2991,"la2":30.254,"lo1":-89.0895,"lo2":-89.0444,"dy":0.0017,"dx":0.0017,"nx":28,"ny":28,"refTime":"2026-03-05T09:00:00:Z","depth":0,"parameterNumber":3,"parameterNumberName":"V-component_of_WINDS"},"data":[0,0,0,0,0,0,0,0,0,0,0,0,0,0,0,0,0,0,0,0,0,0,0,0,0,0,0,0,0,0,0,0,0,0,0,0,0,0,0,0,0,0,0,0,0,0,0,0,0,0,0,0,0,0,0,0,0,0,1.8506,1.8507,0,1.8581,1.8582,1.8583,1.8613,1.8613,1.8612,1.8612,1.8688,1.869,1.8692,0,0,0,0,0,0,0,0,0,0,0,0,0,1.8389,1.8391,1.8506,1.8507,1.8508,1.8581,1.8582,1.8583,1.8613,1.8613,1.8612,1.8612,1.8687,1.869,1.8692,0,0,0,0,0,0,0,0,0,0,0,0,0,1.845,1.8392,1.8506,1.8532,1.8535,1.8581,1.8582,1.8584,1.8613,1.8613,1.8612,1.8612,1.8686,1.8689,1.8693,1.8719,0,0,1.8703,1.8704,0,0,0,0,0,0,0,0,1.8446,1.8454,1.8527,1.853,1.8533,1.8587,1.8569,1.8629,1.8613,1.8583,1.8612,1.8612,1.8654,1.866,1.8675,1.8722,1.8725,1.8703,1.8705,1.8706,1.8707,0,0,0,0,0,0,0,1.8442,1.8451,1.8536,1.8528,1.8532,1.854,1.8548,1.858,1.8619,1.8586,1.8588,1.8597,1.8656,1.8672,1.8677,1.8727,1.8703,1.8706,1.8708,1.8709,1.8802,1.8803,0,0,0,0,0,0,1.8433,1.8447,1.8534,1.8538,1.8488,1.8542,1.8551,1.857,1.8619,1.8626,1.8597,1.8598,1.8666,1.8673,1.868,1.8716,1.8706,1.8709,1.8711,1.8802,1.8802,1.8803,0,0,0,0,0,0,1.8431,1.8441,1.8531,1.8493,1.8505,1.8544,1.8566,1.8572,1.8588,1.8628,1.8635,1.8605,1.8666,1.8675,1.871,1.8719,1.8711,1.8714,1.8801,1.8802,1.8803,1.8786,0,0,0,0,0,0,1.8427,1.844,1.845,1.8493,1.8507,1.8559,1.8566,1.8574,1.8593,1.8595,1.8638,1.8644,1.8667,1.8705,1.8713,1.8723,1.8716,1.8801,1.8802,1.8802,1.8786,1.8786,1.8787,0,0,0,0,0,1.8423,1.8441,1.845,1.846,1.852,1.8559,1.8567,1.8593,1.8594,1.8605,1.8631,1.8643,1.8716,1.8708,1.8718,1.8729,1.88,1.8801,1.8802,1.8786,1.8786,1.8787,0,0,0,0,0,0,1.8396,1.8447,1.8457,1.849,1.852,1.8564,1.8578,1.8592,1.8622,1.8622,1.8653,1.8662,1.8695,1.8715,1.8705,1.8758,1.8759,1.8762,1.8744,1.8744,1.8744,1.8739,1.8719,0,0,0,0,0,1.8394,1.8421,1.8464,1.8489,1.8504,1.8538,1.8556,1.8574,1.8606,1.8619,1.8647,1.8678,1.8708,1.8727,1.8757,1.879,1.88,1.8802,1.8802,1.8802,1.8805,1.8826,1.8828,1.8807,1.8807,1.8807,0,0,1.839,1.8421,1.8436,1.8484,1.851,1.8538,1.8549,1.8577,1.8599,1.8623,1.8658,1.868,1.8716,1.8751,1.8767,1.8769,1.8813,1.8804,1.8803,1.8806,1.8827,1.8829,1.8831,1.8808,1.8807,1.8807,0,0,1.8397,1.8422,1.8447,1.8473,1.8512,1.8535,1.8541,1.8584,1.86,1.8636,1.8656,1.8682,1.8732,1.8758,1.8778,1.8799,1.8812,1.8807,1.8808,1.8829,1.883,1.8832,1.8841,1.8844,1.881,1.8809,1.8809,0,1.8386,1.8429,1.8458,1.8486,1.8508,1.8533,1.8559,1.8582,1.8628,1.8643,1.8644,1.8711,1.8737,1.8779,1.8784,1.8799,1.8808,1.8802,1.8828,1.883,1.8832,1.8841,1.8844,1.8809,1.8809,1.8809,1.8809,0,1.8416,1.8445,1.8461,1.8507,1.853,1.8557,1.859,1.8611,1.8627,1.8651,1.8688,1.8721,1.8759,1.877,1.8786,1.8815,1.8815,1.8822,1.8824,1.8833,1.8842,1.8845,1.8808,1.8808,1.8808,1.8809,0,0,1.8406,1.8469,1.8474,1.8497,1.8543,1.8567,1.8596,1.8634,1.8652,1.8684,1.871,1.8754,1.8761,1.8784,1.8803,1.8821,1.8838,1.8826,1.8827,1.8828,1.8875,1.887,1.8873,1.8847,1.8847,1.8848,1.8872,0,1.842,1.8473,1.8501,1.8543,1.8572,1.8597,1.8623,1.8654,1.8678,1.8707,1.8733,1.8764,1.877,1.8785,1.8803,1.8831,1.8847,1.883,1.8872,1.8873,1.8863,1.8878,1.8872,1.8893,1.8876,1.8876,1.8877,0,1.8442,1.8476,1.8521,1.8567,1.858,1.8602,1.8641,1.8668,1.8705,1.8721,1.8748,1.8768,1.8801,1.88,1.8847,1.8834,1.8854,1.887,1.8872,1.8877,1.8875,1.8884,1.8901,1.8904,1.8882,1.8882,1.8881,0,1.8432,1.8489,1.8524,1.8542,1.8595,1.8611,1.8634,1.8671,1.8694,1.8728,1.8743,1.878,1.8801,1.8829,1.8859,1.8855,1.8903,1.8905,1.8918,1.8918,1.8927,1.8926,1.8948,1.8938,1.8938,1.8938,1.8938,0,1.8445,1.8472,1.852,1.8542,1.8573,1.8606,1.8637,1.8662,1.8695,1.8723,1.8747,1.8772,1.8809,1.8839,1.8863,1.8899,1.8907,1.8922,1.8928,1.8921,1.8919,1.8934,1.8933,1.8939,1.8939,1.8938,1.8938,0,1.8439,1.8472,1.8512,1.8561,1.8574,1.8595,1.8637,1.866,1.8686,1.8721,1.8731,1.8771,1.8808,1.8841,1.889,1.8906,1.8943,1.895,1.8931,1.8934,1.8947,1.8946,1.8979,1.8986,1.897,1.897,1.8971,0,1.8445,1.8467,1.8519,1.854,1.8563,1.8595,1.8619,1.8653,1.8677,1.8723,1.874,1.8779,1.8813,1.8871,1.8905,1.8944,1.8952,1.8961,1.8958,1.895,1.8954,1.8953,1.8956,1.8961,1.8961,1.8961,1.8961,0,1.8453,1.847,1.8503,1.8543,1.8571,1.8604,1.8637,1.8653,1.8693,1.8719,1.8758,1.8784,1.8836,1.8875,1.8918,1.8942,1.8959,1.8962,1.8968,1.896,1.8949,1.8957,1.8932,1.8961,1.8961,1.8961,1.8961,1.8961,1.8455,1.8476,1.8517,1.8554,1.8583,1.8615,1.8639,1.867,1.8703,1.8748,1.8766,1.8807,1.8846,1.8905,1.893,1.8963,1.8966,1.8973,1.8975,1.8977,1.8976,1.8944,1.8971,1.8971,1.8971,1.8971,1.8971,0,1.8465,1.8493,1.8527,1.8575,1.8605,1.8619,1.8658,1.8682,1.8718,1.8753,1.8787,1.8833,1.8872,1.891,1.8952,1.8971,1.898,1.8981,1.898,1.8986,1.8971,1.8962,1.8973,1.8973,1.8973,1.8973,1.8973,1.8973,1.8474,1.8512,1.8534,1.8587,1.8616,1.8656,1.8677,1.8707,1.8737,1.8788,1.8821,1.8846,1.8884,1.8929,1.8966,1.8976,1.8991,1.899,1.9002,1.8987,1.8987,1.8986,1.8979,1.8993,1.8993,1.9015,1.9015,1.9016]}]]